This demonstration page uses our WeatherBlox Daily Observations layout. Learn more.

Left ArrowRight Arrow

Hourly Observations for February 2, 2016

Temp ( °F °C ) Dew Point ( °F °C ) Humidity (%) Winds ( mph kmh ) Pressure ( in mb ) Visibility ( mi km ) Precip ( " mm )
12:22 am 00:22 Cloudy with Mist and Fog 34 1 30 -1 87 87 ENE 25 41 29.77 1008 6 10 0.00 0.00
12:53 am 00:53 Cloudy 33 0.6 30 -1.1 89 89 ENE 23 37 29.78 1009 8 13 0.00 0.03
1:19 am 01:19 Windy with Snow Likely 33 0.6 30 -1.1 89 89 ENE 26 43 29.77 1008 3 4 0.01 0.25
1:31 am 01:31 Windy with Snow Likely 33 0.6 30 -1.1 89 89 NE 26 43 29.77 1008 1 2 0.01 0.25
1:53 am 01:53 Windy with Snow Likely 32 0 30 -1.1 92 92 NE 25 41 29.69 1005 1 2 0.02 0.51
2:13 am 02:13 Windy with Snow Likely 32 0 30 -1.1 92 92 NE 29 46 29.71 1006 1 2 0.00 0.03
2:26 am 02:26 Windy with Snow Likely 32 0 30 -1.1 92 92 ENE 29 46 29.68 1005 1 1 0.01 0.25
2:53 am 02:53 Windy with Snow Likely 32 0 30 -1.1 92 92 ENE 31 50 29.63 1003 1 1 0.01 0.25
3:53 am 03:53 Cloudy with Snow 32 0 30 -1.1 92 92 NE 32 52 29.56 1001 1 1 0.02 0.51
4:14 am 04:14 Windy with Snow Likely 32 0 28 -2 87 87 ENE 29 46 29.62 1003 1 1 0.00 0.00
4:53 am 04:53 Mostly Cloudy with Nearby Thunderstorms 31 -0.6 29 -1.7 92 92 NE 32 52 29.51 999 0 0 0.03 0.76
5:13 am 05:13 Mostly Cloudy with Heavy Snow 31 -0.6 29 -1.7 92 92 NE 31 50 29.56 1001 0 0 0.02 0.51
5:53 am 05:53 Mostly Cloudy with Heavy Snow 31 -0.6 29 -1.7 92 92 NE 32 52 29.50 999 0 0 0.07 1.78
6:53 am 06:53 Mostly Cloudy with Heavy Snow 30 -1.1 28 -2.2 92 92 NE 36 57 29.49 999 0 0 0.07 1.78
7:33 am 07:33 Mostly Cloudy with Snow 30 -1.1 28 -2.2 92 92 NE 35 56 29.53 1000 1 1 0.02 0.51
7:53 am 07:53 Cloudy with Snow 30 -1.1 28 -2.2 92 92 NNE 33 54 29.48 998 1 1 0.02 0.51
8:53 am 08:53 Mostly Cloudy with Freezing Fog 29 -1.7 27 -2.8 92 92 NNE 37 59 29.48 998 0 0 0.02 0.51
9:53 am 09:53 Cloudy with Freezing Fog 29 -1.7 27 -2.8 92 92 NNE 39 63 29.47 998 0 0 0.01 0.25
10:53 am 10:53 Cloudy with Freezing Fog 28 -2.2 26 -3.3 92 92 NNE 33 54 29.47 998 0 0 0.00 0.00
11:08 am 11:08 Cloudy with Freezing Fog 28 -2 25 -4 86 86 NNE 35 56 29.53 1000 0 0 0.00 0.00
11:42 am 11:42 Cloudy with Freezing Fog 27 -3 25 -4 93 93 NNE 33 54 29.56 1001 5 8 0.00 0.00
11:53 am 11:53 Mostly Cloudy with Freezing Fog 27 -2.8 25 -3.9 92 92 N 33 54 29.47 998 0 0 0.00 0.00
12:53 pm 12:53 Mostly Cloudy with Freezing Fog 27 -2.8 24 -4.4 89 89 N 33 54 29.47 998 0 0 0.00 0.00
1:53 pm 13:53 Mostly Cloudy with Freezing Fog 27 -2.8 24 -4.4 89 89 N 33 54 29.47 998 0 0 0.00 0.00
2:53 pm 14:53 Cloudy with Freezing Fog 27 -2.8 24 -4.4 89 89 N 35 56 29.49 999 0 0 0.00 0.00
3:06 pm 15:06 Cloudy with Freezing Fog 27 -3 25 -4 93 93 N 33 54 29.56 1001 0 0 0.00 0.00
3:53 pm 15:53 Mostly Cloudy with Freezing Fog 26 -3.3 23 -5 88 88 N 31 50 29.54 1000 0 0 0.00 0.00
4:03 pm 16:03 Cloudy with Freezing Fog 27 -3 23 -5 86 86 N 33 54 29.62 1003 0 0 0.00 0.00
4:53 pm 16:53 Cloudy with Freezing Fog 26 -3.3 23 -5 88 88 N 35 56 29.60 1002 0 0 0.00 0.00
5:03 pm 17:03 Cloudy with Freezing Fog 27 -3 23 -5 86 86 N 37 59 29.68 1005 0 0 0.00 0.00
5:53 pm 17:53 Cloudy with Freezing Fog 26 -3.3 23 -5 88 88 N 35 56 29.65 1004 0 0 0.00 0.00
6:53 pm 18:53 Cloudy with Mist and Fog 26 -3.3 23 -5 88 88 N 35 56 29.71 1006 1 1 0.00 0.00
7:53 pm 19:53 Cloudy with Freezing Fog 26 -3.3 23 -5 88 88 N 39 63 29.75 1008 1 1 0.00 0.00
8:11 pm 20:11 Cloudy with Mist and Fog 26 -3.3 22 -5.6 84 84 N 33 54 29.80 1009 1 1 0.00 0.00
8:53 pm 20:53 Cloudy with Mist and Fog 25 -3.9 22 -5.6 88 88 N 37 59 29.81 1009 1 1 0.00 0.00
9:23 pm 21:23 Cloudy with Mist and Fog 25 -3.9 21 -6.1 85 85 N 35 56 29.88 1012 1 2 0.00 0.00
9:37 pm 21:37 Cloudy with Mist and Fog 25 -3.9 21 -6.1 85 85 N 35 56 29.88 1012 1 1 0.00 0.00
9:51 pm 21:51 Cloudy with Mist and Fog 25 -4 21 -6 86 86 N 33 54 29.88 1012 1 2 0.00 0.00
9:53 pm 21:53 Cloudy with Mist and Fog 25 -3.9 21 -6.1 85 85 N 33 54 29.84 1011 1 2 0.00 0.00
10:53 pm 22:53 Cloudy with Mist and Fog 25 -3.9 21 -6.1 85 85 N 31 50 29.88 1012 2 2 0.00 0.00
11:53 pm 23:53 Windy with Snow Likely 24 -4.4 20 -6.7 84 84 N 29 46 29.92 1013 1 2 0.00 0.03

Powered by AerisWeather